METEOR 2-7 DEB, 28388

Orbit data source: Space-Track

METEOR 2-7 DEB, 28388 is space debris in LEO originally from a launch on Thu, 14 May 1981 UTC launched from the Plesetsk Missile And Space Complex (PKMTR). Debris objects in space refer to the collection of defunct objects orbiting the Earth. Examples of debris include non-operational satellites, rocket bodies, and fragments generated from explosions, collisions, or faulty payload assembly.

Loading next visibility...
Identifier
28388, 1981-043E
Orbit
LEO
Last TLE update
1 day ago
Origin
Manufacturer
Unknown
Mission
Spacecraft
Bus & Motor
Unknown
Mass
Unknown
Launch date (UTC)
1981-05-14 (44 years ago)
Launch vehicle
Unknown
Launch site
Plesetsk Missile And Space Complex (PKMTR)
Object type
Payload
Rocket body
Debris
Shape & HBR
Unknown
Radar Cross Section
Small (<0.1 m²)

Expand to show TLE details & history

TLE from 1 day ago
0 METEOR 2-7 DEB
1 28388U 81043E   25189.24846862  .00006708  00000-0  17236-2 0  9992
2 28388  81.2645 289.0879 0017166 352.2681   7.8244 14.50048817598126
Epoch: 2025-07-08T05:57Z
TLE epoch observation values (Epoch: 2025-07-08T05:57:47.688Z)
Latitude
-0.00009°
Longitude
-86.80699°
Altitude
716.361 km
Speed
7.504 km/s
True Right ascension
19h 16m 21s
True Declination
0° 00' 00"
Sunlit
Object was in full shadow at epoch
Visualization orbit readout
Latitude
-54.17952°
Longitude
-100.45115°
Altitude
737.508 km
Speed
7.49 km/s
Apparent Right ascension
16h 32m 36s
Apparent Declination
-50° 04' 06"
Sunlit
Object is in full shadow
Visualization observer readout
Local Sidereal Time
03:00:38
Azimuth
230.186° WSW
Elevation
-70.951°
Doppler factor
1
Orbital elements
Apogee altitude
734.798 km
Perigee altitude
710.42 km
Semi-major axis
7,100.746 km
Eccentricity
0.00172
Inclination
81.2645°
RAAN
289.0879°
Arg. of periapsis
352.2681°
True anomaly
Unknown
Mean anomaly
7.8244°
Eccentric anomaly
Unknown
Mean motion
3.62733 °/min
Orbital period
99.25 mins
BSTAR
0.0017236
Loading maneuver chart data...
Loading SW <> Apogee altitude chart data...
Loading historical data...
Loading historical data...
Loading historical data...
Loading historical data...
Loading historical data...
Loading historical data...
Loading historical data...

METEOR 2-7 DEB Visibility forecast

Observer location: undefined°, undefined°

Span
Click to sort rows by Start time (UTC) header in descending order
Start Az.
Max El. time (UTC)
Max El. Az.
Max El.
End time (UTC)
End Az.
6 mins2025-07-09 17:18:56.225Z27.799° NE2025-07-09 17:21:56.225Z68.965° E19.286°2025-07-09 17:24:56.225Z111.137° ESE
8 mins2025-07-09 18:58:56.225Z330.064° NNW2025-07-09 19:01:56.225Z282.66° WNW32.876°2025-07-09 19:06:56.225Z198.387° SSW
4 mins2025-07-10 06:08:56.225Z105.553° ESE2025-07-10 06:09:56.225Z91.494° ESE15.536°2025-07-10 06:12:56.225Z52° ENE
7 mins2025-07-10 07:46:56.225Z215.643° SW2025-07-10 07:49:56.225Z277.518° WNW36.871°2025-07-10 07:53:56.225Z354.269° N
|